[[{"header":{"parameterUnit":"m.s-1","parameterCategory":1,"la1":30.2991,"la2":30.254,"lo1":-89.0895,"lo2":-89.0444,"dy":0.0017,"dx":0.0017,"nx":28,"ny":28,"refTime":"2025-03-13T03:00:00:Z","depth":0,"parameterNumber":2,"parameterNumberName":"U-component_of_WINDS"},"data":[0,0,0,0,0,0,0,0,0,0,0,0,0,0,0,0,0,0,0,0,0,0,0,0,0,0,0,0,0,0,0,0,0,0,0,0,0,0,0,0,0,0,0,0,0,0,0,0,0,0,0,0,0,0,0,0,0,0,-0.1135,-0.1136,0,-0.1228,-0.1229,-0.123,-0.1303,-0.1304,-0.1304,-0.1305,-0.1402,-0.1404,-0.1405,0,0,0,0,0,0,0,0,0,0,0,0,0,-0.1022,-0.1024,-0.1135,-0.1136,-0.1137,-0.1228,-0.1229,-0.1231,-0.1303,-0.1304,-0.1304,-0.1305,-0.1401,-0.1403,-0.1406,0,0,0,0,0,0,0,0,0,0,0,0,0,-0.1089,-0.1024,-0.1135,-0.1184,-0.119,-0.1228,-0.1229,-0.1231,-0.1303,-0.1304,-0.1305,-0.1306,-0.14,-0.1403,-0.1406,-0.1403,0,0,-0.1415,-0.1416,0,0,0,0,0,0,0,0,-0.1085,-0.1093,-0.1176,-0.1181,-0.1187,-0.1255,-0.1225,-0.1289,-0.1302,-0.126,-0.1305,-0.1306,-0.1352,-0.1359,-0.1374,-0.1408,-0.1412,-0.1415,-0.1417,-0.1418,-0.1419,0,0,0,0,0,0,0,-0.108,-0.1089,-0.1172,-0.1177,-0.1184,-0.1203,-0.1213,-0.1237,-0.1299,-0.1263,-0.1269,-0.1279,-0.1355,-0.1371,-0.1377,-0.1413,-0.1415,-0.1418,-0.1419,-0.142,-0.1449,-0.1448,0,0,0,0,0,0,-0.1068,-0.1085,-0.1169,-0.1175,-0.1137,-0.1204,-0.1216,-0.1232,-0.1299,-0.131,-0.1278,-0.1282,-0.1366,-0.1374,-0.1381,-0.1381,-0.1418,-0.1421,-0.1422,-0.145,-0.1449,-0.1448,0,0,0,0,0,0,-0.1065,-0.1074,-0.1165,-0.1131,-0.1144,-0.1205,-0.1222,-0.1233,-0.1249,-0.131,-0.1321,-0.1283,-0.1367,-0.1377,-0.1397,-0.1386,-0.1422,-0.1425,-0.1451,-0.145,-0.1449,-0.1382,0,0,0,0,0,0,-0.1061,-0.1073,-0.1072,-0.1131,-0.1146,-0.1179,-0.1222,-0.1234,-0.1254,-0.126,-0.1317,-0.1328,-0.1369,-0.1392,-0.14,-0.139,-0.1427,-0.1453,-0.1451,-0.1449,-0.1386,-0.1379,-0.1373,0,0,0,0,0,-0.1057,-0.105,-0.1071,-0.1081,-0.1145,-0.1178,-0.1187,-0.1233,-0.1253,-0.1252,-0.1292,-0.1326,-0.1386,-0.1394,-0.1403,-0.1394,-0.1454,-0.1451,-0.1449,-0.1389,-0.138,-0.1373,0,0,0,0,0,0,-0.0988,-0.1058,-0.1083,-0.1094,-0.1129,-0.119,-0.1191,-0.1223,-0.1254,-0.1258,-0.1315,-0.1328,-0.1342,-0.1371,-0.1378,-0.1395,-0.1424,-0.1424,-0.1375,-0.1368,-0.1361,-0.1353,-0.1429,0,0,0,0,0,-0.0974,-0.0994,-0.1055,-0.1059,-0.1075,-0.113,-0.1146,-0.1179,-0.1218,-0.1233,-0.1274,-0.1311,-0.1338,-0.1355,-0.1384,-0.1391,-0.1405,-0.139,-0.1383,-0.1378,-0.1376,-0.1382,-0.1376,-0.1441,-0.1441,-0.1441,0,0,-0.0945,-0.0986,-0.0995,-0.1046,-0.1077,-0.1097,-0.1142,-0.1161,-0.1176,-0.1236,-0.1257,-0.1289,-0.1334,-0.1348,-0.1356,-0.1372,-0.1362,-0.1375,-0.137,-0.1372,-0.1379,-0.1373,-0.1367,-0.1439,-0.144,-0.144,0,0,-0.0902,-0.0936,-0.0942,-0.0973,-0.102,-0.1056,-0.1058,-0.1114,-0.1137,-0.1159,-0.1205,-0.1225,-0.1271,-0.1301,-0.1323,-0.1293,-0.1326,-0.1301,-0.1266,-0.1272,-0.1267,-0.1262,-0.1251,-0.1246,-0.13,-0.13,-0.13,0,-0.0861,-0.0891,-0.0942,-0.0958,-0.0979,-0.1035,-0.1043,-0.107,-0.1124,-0.1138,-0.1155,-0.1214,-0.1249,-0.127,-0.1263,-0.1279,-0.1283,-0.1294,-0.1263,-0.1259,-0.1256,-0.1246,-0.1241,-0.1296,-0.1297,-0.1297,-0.1297,0,-0.0838,-0.0859,-0.0859,-0.0908,-0.093,-0.0942,-0.0995,-0.1011,-0.1043,-0.1078,-0.11,-0.1144,-0.1182,-0.1191,-0.1222,-0.1217,-0.1225,-0.1252,-0.1283,-0.1246,-0.1237,-0.1233,-0.1291,-0.1293,-0.1294,-0.1294,0,0,-0.0752,-0.083,-0.0829,-0.0853,-0.0909,-0.0927,-0.0942,-0.0979,-0.0991,-0.1027,-0.1041,-0.108,-0.1105,-0.113,-0.1165,-0.117,-0.1143,-0.1197,-0.1199,-0.1184,-0.1139,-0.1117,-0.1111,-0.1166,-0.1166,-0.1165,-0.1135,0,-0.0717,-0.0745,-0.0792,-0.0806,-0.0826,-0.088,-0.0893,-0.093,-0.0963,-0.0986,-0.1024,-0.105,-0.1082,-0.1097,-0.1105,-0.1145,-0.1135,-0.1148,-0.1179,-0.118,-0.1164,-0.1107,-0.1083,-0.1052,-0.1132,-0.1132,-0.1131,0,-0.0679,-0.0711,-0.0726,-0.0782,-0.0792,-0.0803,-0.0841,-0.0862,-0.0905,-0.0929,-0.0957,-0.0996,-0.1016,-0.1044,-0.1072,-0.108,-0.1096,-0.1118,-0.1118,-0.1121,-0.1151,-0.1107,-0.1044,-0.1038,-0.1127,-0.1127,-0.1127,0,-0.0612,-0.066,-0.0676,-0.0694,-0.0759,-0.0766,-0.0793,-0.0838,-0.0857,-0.0891,-0.0905,-0.0941,-0.096,-0.0987,-0.1035,-0.1052,-0.1058,-0.1091,-0.1078,-0.1077,-0.1075,-0.1074,-0.1011,-0.1088,-0.1088,-0.1088,-0.1088,0,-0.0567,-0.0574,-0.0647,-0.0655,-0.0665,-0.072,-0.0729,-0.0762,-0.0801,-0.0818,-0.0868,-0.0883,-0.0947,-0.097,-0.1008,-0.1025,-0.1034,-0.1054,-0.1063,-0.1048,-0.1045,-0.1057,-0.106,-0.1087,-0.1087,-0.1088,-0.1088,0,-0.0494,-0.0543,-0.0562,-0.0623,-0.0639,-0.0643,-0.0695,-0.0707,-0.0744,-0.0765,-0.0774,-0.0832,-0.0862,-0.0913,-0.0958,-0.0984,-0.0992,-0.101,-0.0977,-0.0983,-0.0966,-0.0966,-0.0908,-0.0903,-0.0984,-0.0984,-0.0983,0,-0.046,-0.0467,-0.0528,-0.0543,-0.0568,-0.0592,-0.0612,-0.0667,-0.0686,-0.0736,-0.0742,-0.0775,-0.0805,-0.085,-0.0897,-0.0931,-0.0949,-0.0927,-0.0955,-0.0939,-0.0947,-0.0945,-0.0946,-0.0919,-0.0918,-0.0917,-0.0916,0,-0.0395,-0.0419,-0.0446,-0.0481,-0.0504,-0.0535,-0.0568,-0.0578,-0.0641,-0.066,-0.069,-0.0713,-0.0759,-0.0791,-0.0833,-0.0863,-0.0899,-0.0908,-0.0906,-0.0889,-0.0869,-0.0878,-0.0957,-0.0908,-0.0909,-0.0909,-0.091,-0.091,-0.034,-0.0348,-0.0392,-0.0421,-0.0452,-0.0482,-0.0495,-0.0535,-0.0561,-0.0602,-0.0634,-0.0662,-0.0706,-0.0766,-0.0793,-0.0817,-0.0834,-0.0832,-0.0831,-0.0829,-0.0822,-0.0867,-0.0825,-0.0825,-0.0825,-0.0826,-0.0826,0,-0.0276,-0.0308,-0.0333,-0.0378,-0.04,-0.0434,-0.0473,-0.049,-0.0514,-0.0552,-0.058,-0.0615,-0.0647,-0.0698,-0.0734,-0.0743,-0.0761,-0.075,-0.0749,-0.0755,-0.0806,-0.0803,-0.0735,-0.0735,-0.0735,-0.0735,-0.0735,-0.0735,-0.0245,-0.026,-0.029,-0.0322,-0.0354,-0.0381,-0.04,-0.0429,-0.046,-0.0496,-0.0523,-0.0556,-0.0599,-0.0639,-0.0671,-0.0685,-0.0695,-0.0679,-0.0698,-0.0744,-0.0752,-0.076,-0.0757,-0.0681,-0.0681,-0.0645,-0.0645,-0.0644]},{"header":{"parameterUnit":"m.s-1","parameterCategory":1,"la1":30.2991,"la2":30.254,"lo1":-89.0895,"lo2":-89.0444,"dy":0.0017,"dx":0.0017,"nx":28,"ny":28,"refTime":"2025-03-13T03:00:00:Z","depth":0,"parameterNumber":3,"parameterNumberName":"V-component_of_WINDS"},"data":[0,0,0,0,0,0,0,0,0,0,0,0,0,0,0,0,0,0,0,0,0,0,0,0,0,0,0,0,0,0,0,0,0,0,0,0,0,0,0,0,0,0,0,0,0,0,0,0,0,0,0,0,0,0,0,0,0,0,1.7179,1.7178,0,1.7095,1.7094,1.7093,1.6985,1.6983,1.6981,1.698,1.6894,1.6894,1.6893,0,0,0,0,0,0,0,0,0,0,0,0,0,1.7247,1.7246,1.7179,1.7178,1.7177,1.7095,1.7094,1.7093,1.6985,1.6983,1.6981,1.6979,1.6895,1.6894,1.6893,0,0,0,0,0,0,0,0,0,0,0,0,0,1.7196,1.7246,1.7179,1.7113,1.7107,1.7096,1.7094,1.7093,1.6986,1.6983,1.698,1.6978,1.6895,1.6894,1.6893,1.694,0,0,1.689,1.689,0,0,0,0,0,0,0,0,1.7199,1.7194,1.7124,1.7118,1.711,1.7048,1.7087,1.7042,1.6986,1.7032,1.698,1.6976,1.6948,1.6942,1.6932,1.6936,1.6932,1.689,1.6889,1.6889,1.6889,0,0,0,0,0,0,0,1.7203,1.7197,1.7146,1.7123,1.7115,1.7088,1.7078,1.7078,1.7005,1.7027,1.7019,1.7011,1.6943,1.6933,1.6929,1.6931,1.689,1.6889,1.6889,1.6888,1.6971,1.6974,0,0,0,0,0,0,1.7216,1.72,1.7149,1.7143,1.7149,1.7089,1.7078,1.7071,1.7005,1.6993,1.7013,1.7006,1.6936,1.6931,1.6926,1.6978,1.6889,1.6888,1.6888,1.6968,1.6971,1.6974,0,0,0,0,0,0,1.7218,1.7212,1.7152,1.717,1.716,1.7091,1.7084,1.707,1.706,1.6994,1.6981,1.7016,1.6934,1.6927,1.6938,1.6973,1.6888,1.6887,1.6965,1.6969,1.6973,1.7082,0,0,0,0,0,0,1.722,1.7214,1.7231,1.7171,1.7159,1.7165,1.7086,1.7071,1.7059,1.7049,1.6994,1.6982,1.6931,1.694,1.6937,1.697,1.6886,1.6961,1.6967,1.6972,1.7075,1.7089,1.7101,0,0,0,0,0,1.7223,1.7264,1.7232,1.7226,1.7179,1.7167,1.7161,1.7101,1.7062,1.7079,1.7037,1.6984,1.697,1.6942,1.6937,1.6971,1.6959,1.6965,1.6971,1.7069,1.7086,1.7101,0,0,0,0,0,0,1.733,1.7255,1.7219,1.7242,1.7212,1.7149,1.7168,1.7122,1.7102,1.7094,1.7021,1.7009,1.7029,1.7001,1.6971,1.7014,1.6957,1.6962,1.7032,1.7048,1.7061,1.7068,1.6885,0,0,0,0,0,1.7357,1.7353,1.7288,1.7315,1.7301,1.7238,1.723,1.7187,1.7153,1.714,1.7098,1.7068,1.7056,1.7051,1.7036,1.707,1.7057,1.7091,1.7105,1.7116,1.7122,1.7139,1.7154,1.6995,1.6995,1.6995,0,0,1.7411,1.737,1.7372,1.7335,1.7307,1.7305,1.7228,1.7229,1.7227,1.714,1.7148,1.7117,1.7077,1.71,1.7108,1.7077,1.7163,1.7124,1.7133,1.7133,1.7147,1.7162,1.7175,1.6999,1.6998,1.6998,0,0,1.7509,1.7478,1.7497,1.747,1.7428,1.7386,1.7391,1.7335,1.7311,1.7317,1.7252,1.7249,1.7231,1.7206,1.7191,1.7282,1.7233,1.7279,1.7349,1.7367,1.7379,1.739,1.7423,1.7436,1.7285,1.7285,1.7286,0,1.7583,1.7577,1.7513,1.7519,1.7505,1.7426,1.7445,1.7422,1.7379,1.7371,1.7337,1.7313,1.7281,1.7298,1.732,1.731,1.7314,1.7285,1.7383,1.7393,1.7402,1.7433,1.7446,1.7291,1.7291,1.729,1.729,0,1.767,1.7667,1.7688,1.7648,1.7636,1.7649,1.7587,1.7583,1.7541,1.7503,1.7511,1.747,1.7446,1.7447,1.7406,1.7458,1.744,1.7396,1.7336,1.7424,1.7452,1.7463,1.73,1.7298,1.7296,1.7295,0,0,1.7833,1.7758,1.7767,1.7748,1.7696,1.7693,1.7703,1.768,1.7679,1.7651,1.7658,1.7645,1.7603,1.7587,1.7542,1.7557,1.7633,1.751,1.7508,1.7536,1.7689,1.7724,1.7739,1.76,1.7602,1.7604,1.7693,0,1.7923,1.7935,1.7878,1.7905,1.7902,1.7828,1.7836,1.7806,1.777,1.7763,1.7724,1.7716,1.7661,1.7651,1.7662,1.7622,1.7663,1.7614,1.7607,1.7607,1.762,1.7753,1.779,1.7876,1.7703,1.7705,1.7707,0,1.8029,1.8008,1.8035,1.7983,1.798,1.7988,1.7963,1.7957,1.7922,1.7895,1.7877,1.7826,1.7832,1.7776,1.7784,1.7752,1.7746,1.7725,1.7727,1.7725,1.7663,1.7756,1.7902,1.7916,1.7723,1.7722,1.772,0,1.8148,1.8125,1.8139,1.8125,1.8064,1.8072,1.8048,1.8009,1.8,1.7978,1.7971,1.7951,1.794,1.7925,1.7871,1.7834,1.7886,1.7824,1.7865,1.7867,1.788,1.788,1.8028,1.7874,1.7874,1.7874,1.7874,0,1.8254,1.8274,1.8192,1.82,1.8221,1.8155,1.8177,1.8144,1.8111,1.8113,1.8046,1.805,1.7976,1.7971,1.7928,1.7943,1.7938,1.7917,1.7906,1.7924,1.7927,1.7919,1.7912,1.7877,1.7877,1.7876,1.7875,0,1.839,1.8336,1.8346,1.8288,1.8273,1.8291,1.8242,1.8248,1.8208,1.8211,1.8208,1.8146,1.8137,1.808,1.8058,1.8029,1.806,1.8036,1.8072,1.8065,1.8109,1.8106,1.8258,1.8276,1.811,1.8112,1.8113,0,1.8463,1.8476,1.842,1.8416,1.8394,1.8389,1.8379,1.8314,1.8307,1.8268,1.8279,1.8265,1.825,1.8239,1.8192,1.8175,1.8151,1.8206,1.8148,1.8166,1.8154,1.8154,1.8156,1.8218,1.8221,1.8222,1.8224,0,1.8597,1.857,1.8558,1.8537,1.8527,1.8507,1.8483,1.8484,1.8413,1.8408,1.8398,1.8386,1.8364,1.8351,1.8326,1.8301,1.8252,1.8242,1.8251,1.827,1.8291,1.8282,1.8107,1.8239,1.8238,1.8236,1.8236,1.8235,1.8704,1.8714,1.8676,1.8665,1.864,1.862,1.8623,1.8584,1.8574,1.8551,1.8513,1.8509,1.8474,1.8435,1.8414,1.841,1.8381,1.8394,1.8397,1.8402,1.8412,1.8291,1.8405,1.8405,1.8404,1.8404,1.8404,0,1.8837,1.8809,1.8799,1.8768,1.876,1.8714,1.8685,1.8682,1.8678,1.865,1.8636,1.8626,1.8613,1.8566,1.8548,1.8554,1.8531,1.8552,1.8551,1.8547,1.8438,1.8432,1.8571,1.8571,1.8571,1.8571,1.8571,1.8571,1.8905,1.8918,1.8886,1.8887,1.8859,1.8854,1.8842,1.8823,1.88,1.8791,1.878,1.8749,1.8713,1.8692,1.8679,1.8665,1.8663,1.8691,1.8671,1.857,1.8554,1.8539,1.8534,1.8691,1.8691,1.878,1.8781,1.8781]}]]